Home > Weather > Toledo > Past weeks

Flag for USA Past Weather in Toledo, Ohio, USA — Yesterday and Last 2 Weeks

Now
84 °F

Sunny.


Feels Like: 92 °F
Forecast: 75 / 90 °F
Wind: No wind

Location: Toledo Suburban Airport

Current Time: Jul 24, 2016 at 8:22:00 PM

Latest Report: Jul 24, 2016 at 7:54 PM


Visibility: 10 mi

Pressure: 29.93 "Hg

Humidity: 72%

Dew Point: 74 °F

Location of ToledoLocation

Past Weather in Toledo — Graph

°F

Toledo Temperature Yesterday

Maximum temperature yesterday: 94 °F (at 2:55 PM)
Minimum temperature yesterday: 68 °F (at 6:55 AM)
Average temperature yesterday: 81 °F

High & Low Weather Summary for the Past Weeks

 TemperatureHumidityPressure
High94 °F (Jul 23, 2:55 PM)95% (Jul 17, 3:35 AM)30.28 "Hg (Jul 17, 3:35 AM)
Low58 °F (Jul 17, 5:55 AM)32% (Jul 23, 5:55 PM)29.81 "Hg (Jul 13, 7:14 PM)
Average77 °F69%30.03 "Hg
* Reported Jul 9 7:15 PM — Jul 24 7:15 PM, Toledo, Weather by CustomWeather, © 2016

Note: Actual official high and low records may vary slightly from our data, if they occured in-between our weather recording intervals... More about our weather records

Advertising

Toledo Weather History for the Previous 24 Hours

Scroll right to see more
 ConditionsComfort  
Time TempWeatherWind HumidityBarometerVisibility
7:15 PM
Sun, Jul 24
85 °FSunny.No wind69%29.93 "Hg10 mi
6:54 PM85 °FSunny.6 mph68%29.93 "Hg10 mi
6:34 PM84 °FSunny.5 mph69%29.92 "Hg10 mi
6:15 PM84 °FSunny.6 mph68%29.93 "Hg10 mi
5:54 PM84 °FSunny.6 mph68%29.93 "Hg10 mi
5:34 PM83 °FSunny.6 mph69%29.92 "Hg10 mi
5:15 PM83 °FSunny.7 mph72%29.93 "Hg10 mi
4:54 PM83 °FSunny.5 mph70%29.93 "Hg10 mi
4:34 PM83 °FSunny.6 mph68%29.93 "Hg10 mi
4:15 PM81 °FSunny.5 mph75%29.94 "Hg10 mi
3:55 PM78 °FSunny.3 mph81%29.94 "Hg10 mi
3:34 PM77 °FSunny.7 mph85%29.94 "Hg10 mi
3:15 PM75 °FSunny.5 mph87%29.94 "Hg10 mi
2:55 PM74 °FScattered clouds.5 mph89%29.96 "Hg10 mi
2:34 PM73 °FLight rain. Scattered clouds.7 mph89%29.98 "Hg10 mi
2:15 PM73 °FSunny.8 mph89%30.00 "Hg10 mi
1:55 PM72 °FScattered clouds.6 mph89%30.01 "Hg10 mi
1:34 PM72 °FLight rain. Cloudy.7 mph89%30.02 "Hg7 mi
1:15 PM73 °FLight rain. Cloudy.7 mph87%30.02 "Hg7 mi
12:55 PM74 °FLight rain. Cloudy.7 mph87%30.02 "Hg10 mi
12:34 PM77 °FLight rain. Scattered clouds.14 mph78%30.01 "Hg10 mi
12:15 PM79 °FScattered clouds.12 mph74%30.00 "Hg10 mi
11:55 AM80 °FCloudy.6 mph73%30.00 "Hg10 mi
11:34 AM80 °FCloudy.9 mph78%30.00 "Hg10 mi
10:55 AM80 °FSunny.5 mph80%29.98 "Hg10 mi
10:35 AM79 °FSunny.5 mph82%29.98 "Hg10 mi
10:14 AM79 °FLight rain. Sunny.6 mph82%29.98 "Hg10 mi
9:55 AM79 °FScattered clouds.6 mph81%29.98 "Hg10 mi
9:35 AM79 °FMore clouds than sun.5 mph80%29.98 "Hg10 mi
9:14 AM79 °FCloudy.No wind80%29.98 "Hg10 mi
8:55 AM78 °FPartly sunny.No wind81%29.96 "Hg10 mi
8:35 AM79 °FScattered clouds.5 mph80%29.95 "Hg10 mi
8:15 AM78 °FScattered clouds.No wind79%29.96 "Hg10 mi
7:54 AM77 °FSunny.No wind80%29.95 "Hg10 mi
7:35 AM77 °FSunny.No wind79%29.96 "Hg10 mi
7:15 AM77 °FClear.No wind78%29.95 "Hg10 mi
6:55 AM76 °FClear.No wind78%29.95 "Hg10 mi
6:34 AM75 °FPassing clouds.3 mph81%29.95 "Hg10 mi
6:15 AM74 °FPassing clouds.No wind83%29.96 "Hg10 mi
5:55 AM74 °FClear.No wind84%29.96 "Hg10 mi
5:34 AM74 °FClear.No wind83%29.97 "Hg10 mi
5:15 AM75 °FPassing clouds.No wind82%29.98 "Hg10 mi
4:55 AM74 °FClear.No wind84%29.99 "Hg10 mi
4:34 AM74 °FClear.No wind84%29.99 "Hg10 mi
4:15 AM74 °FClear.No wind82%29.99 "Hg10 mi
3:55 AM75 °FClear.No wind80%29.98 "Hg10 mi
3:34 AM77 °FClear.No wind75%29.98 "Hg10 mi
3:15 AM78 °FClear.No wind71%29.97 "Hg10 mi
2:55 AM76 °FClear.5 mph80%29.98 "Hg10 mi
2:34 AM75 °FClear.No wind83%29.98 "Hg10 mi
2:15 AM75 °FClear.No wind82%29.98 "Hg10 mi
1:55 AM75 °FClear.No wind81%29.98 "Hg10 mi
1:34 AM76 °FClear.No wind79%29.97 "Hg10 mi
1:15 AM78 °FClear.No wind75%29.97 "Hg10 mi
12:55 AM78 °FClear.3 mph74%29.97 "Hg10 mi
12:34 AM76 °FClear.3 mph82%29.98 "Hg10 mi
12:15 AM76 °FClear.No wind79%29.99 "Hg10 mi
11:55 PM
Sat, Jul 23
76 °FClear.3 mph82%29.99 "Hg10 mi
11:34 PM77 °FClear.No wind77%29.99 "Hg10 mi
11:15 PM77 °FClear.No wind77%29.99 "Hg10 mi
10:55 PM77 °FClear.No wind82%29.99 "Hg10 mi
10:34 PM77 °FClear.No wind75%29.98 "Hg10 mi
10:15 PM78 °FClear.No wind73%29.98 "Hg10 mi
9:55 PM78 °FSunny.No wind76%29.98 "Hg10 mi
9:34 PM79 °FSunny.No wind73%29.98 "Hg10 mi
9:15 PM80 °FSunny.No wind71%29.96 "Hg10 mi
8:55 PM81 °FSunny.No wind68%29.97 "Hg10 mi
8:34 PM83 °FSunny.No wind67%29.96 "Hg10 mi
8:15 PM84 °FSunny.No wind62%29.95 "Hg10 mi
Weather by CustomWeather, © 2016

See weather overviewHow to use our weather pages